Content
SEND FEEDBACK

Daily
Averages
Monthly
Summary
French Polynesia

PAPEETE, FRENCH POLYNESIA


Home > Oceania > French Polynesia
Elevation: 7 feet     Latitude: 17 33S     Longitude: 149 36W

WEATHER
 
SELECT A DAY
Number of Records: 215,996;   Date Range: 6/30/96 - 11/23/14
 
SHARE

PRINT THIS DATA

[ ← Previous Day ]
WEATHER ALMANAC - MARCH 18, 2013
[ Next Day → ]
[ °C ]   °F
Weather ElementAverageHighLow
Temperature82.6 °F89.6 °F (2:00 pm)77 °F (5:22 am)
Dewpoint72.3 °F76 °F (8:00 pm)69 °F (11:00 pm)
Humidity70.6 %83 % (5:22 am)51 % (2:00 pm)
Barometer29.92 in29.96 in (8:00 am)29.86 in (2:00 pm)
Wind Speed4.8 mph13.4 mph (8:00 am)
Weather ElementAverage
Visibility7.4 mi
Wind DirectionSSE (164.5 °)

Weather ElementTotal
Precipitation---
Cooling Degree Days18.3 (Base 65)
Growing Degree Days33.3 (Base 50)
Averaged from 56 records on March 18, 2013
WEATHER CONDITIONS BREAKOUT
WIND DIRECTION BREAKOUT
WEATHER BY HOUR - MARCH 18, 2013
[ °C ]   °F
Local TimeTemperatureDewpointHumidityBarometerVisibilityWind DirectionWind SpeedGust SpeedPrecipitationEventsConditions
12:30 AM78.8 °F71.6 °F78 %29.92 in6.2 miCalmPartly Cloudy
1:06 AM78.8 °F71.6 °F78 %29.92 in6.2 miVariable2.3 mphPartly Cloudy
1:30 AM78.8 °F71.6 °F78 %29.92 in6.2 miCalmPartly Cloudy
2:00 AM79.0 °F72.0 °F74 %29.92 in12.0 miSSE (160°)6.7 mphScattered Clouds
2:00 AM78.8 °F71.6 °F78 %29.92 in6.2 miSSE (160°)3.5 mphPartly Cloudy
2:30 AM78.8 °F71.6 °F78 %29.92 in6.2 miVariable1.2 mphPartly Cloudy
3:00 AM78.8 °F71.6 °F78 %29.89 in6.2 miENE (70°)4.6 mphPartly Cloudy
3:30 AM78.8 °F69.8 °F74 %29.89 in6.2 miENE (70°)3.5 mphMostly Cloudy
4:00 AM78.8 °F71.6 °F78 %29.89 in6.2 miVariable2.3 mph
4:30 AM78.8 °F71.6 °F78 %29.92 in6.2 miVariable3.5 mph
5:00 AM78.0 °F72.0 °F77 %29.92 in37.0 miSouth (190°)2.3 mphClear
5:00 AM78.8 °F71.6 °F78 %29.92 in6.2 miVariable2.3 mph
5:22 AM77.0 °F71.6 °F83 %29.92 in6.2 miEast (80°)3.5 mphScattered Clouds
5:30 AM77.0 °F71.6 °F83 %29.92 in6.2 miEast (80°)4.6 mphScattered Clouds
6:00 AM77.0 °F71.6 °F83 %29.92 in6.2 miEast (80°)4.6 mphScattered Clouds
6:30 AM78.8 °F71.6 °F78 %29.95 in6.2 miENE (60°)3.5 mphScattered Clouds
7:00 AM78.8 °F69.8 °F74 %29.95 in6.2 miVariable1.2 mphScattered Clouds
7:30 AM80.6 °F73.4 °F79 %29.95 in6.2 miSouth (190°)3.5 mphMostly Cloudy
8:00 AM82.0 °F73.0 °F67 %29.96 in12.0 miSSW (210°)13.4 mphPartly Cloudy
8:00 AM82.4 °F73.4 °F74 %29.95 in6.2 miSSW (210°)6.9 mphMostly Cloudy
8:30 AM82.4 °F73.4 °F74 %29.95 in6.2 miSW (230°)6.9 mphMostly Cloudy
9:00 AM84.2 °F73.4 °F70 %29.95 in6.2 miWSW (240°)3.5 mphScattered Clouds
9:30 AM84.2 °F73.4 °F70 %29.95 in6.2 miNorth (350°)3.5 mphMostly Cloudy
10:00 AM86.0 °F73.4 °F66 %29.95 in6.2 miNorth (360°)5.8 mphScattered Clouds
10:30 AM86.0 °F73.4 °F66 %29.95 in6.2 miNorth (350°)5.8 mphScattered Clouds
11:00 AM86.0 °F74.0 °F59 %29.94 in12.0 miNNW (330°)4.6 mphScattered Clouds
11:00 AM86.0 °F73.4 °F66 %29.92 in6.2 miNNW (330°)4.6 mphScattered Clouds
11:30 AM86.0 °F73.4 °F66 %29.92 in6.2 miNW (320°)6.9 mphScattered Clouds
12:00 PM86.0 °F73.4 °F66 %29.92 in6.2 miWNW (300°)8.1 mphScattered Clouds
12:30 PM87.8 °F73.4 °F62 %29.89 in6.2 miWest (280°)6.9 mphScattered Clouds
1:00 PM87.8 °F73.4 °F62 %29.89 in6.2 miWest (260°)6.9 mphScattered Clouds
1:30 PM87.8 °F73.4 °F62 %29.89 in6.2 miWSW (250°)5.8 mphScattered Clouds
2:00 PM89.0 °F73.0 °F51 %29.88 in12.0 miWest (270°)5.8 mphScattered Clouds
2:00 PM89.6 °F73.4 °F59 %29.86 in6.2 miWest (270°)5.8 mphScattered Clouds
2:30 PM89.6 °F73.4 °F59 %29.86 in6.2 miWest (270°)5.8 mphScattered Clouds
3:00 PM89.6 °F73.4 °F59 %29.86 in6.2 miWNW (290°)5.8 mphPartly Cloudy
3:30 PM89.6 °F73.4 °F59 %29.86 in6.2 miWest (270°)5.8 mphPartly Cloudy
4:00 PM87.8 °F73.4 °F62 %29.86 in6.2 miWSW (250°)8.1 mphPartly Cloudy
4:30 PM87.8 °F73.4 °F62 %29.86 in6.2 miWSW (240°)9.2 mphScattered Clouds
5:00 PM87.0 °F73.0 °F54 %29.88 in12.0 miSW (230°)8.1 mphScattered Clouds
5:00 PM87.8 °F73.4 °F62 %29.86 in6.2 miSW (230°)8.1 mphPartly Cloudy
5:30 PM87.8 °F71.6 °F58 %29.89 in6.2 miWest (260°)2.3 mphPartly Cloudy
6:00 PM86.0 °F71.6 °F62 %29.89 in6.2 miNorth (350°)2.3 mphScattered Clouds
6:30 PM86.0 °F73.4 °F66 %29.92 in6.2 miNorth (10°)4.6 mphScattered Clouds
7:00 PM84.2 °F73.4 °F70 %29.92 in6.2 miNNE (30°)6.9 mphScattered Clouds
7:30 PM82.4 °F75.2 °F79 %29.92 in6.2 miENE (60°)8.1 mphRainLight Rain
8:00 PM82.0 °F76.0 °F76 %29.95 in9.0 miESE (110°)4.6 mphRainLight Rain
8:00 PM82.4 °F75.2 °F79 %29.95 in6.2 miESE (110°)4.6 mphRainLight Rain
8:30 PM80.6 °F69.8 °F70 %29.95 in6.2 miEast (100°)6.9 mphRainLight Rain
9:00 PM78.8 °F69.8 °F74 %29.95 in6.2 miVariable3.5 mphRainLight Rain
9:30 PM78.8 °F69.8 °F74 %29.95 in6.2 miVariable2.3 mphRainLight Rain
10:00 PM77.0 °F69.8 °F78 %29.95 in6.2 miESE (110°)3.5 mphMostly Cloudy
10:30 PM77.0 °F71.6 °F83 %29.95 in6.2 miVariable3.5 mphMostly Cloudy
11:00 PM78.0 °F69.0 °F67 %29.95 in12.0 miSSW (210°)3.5 mphPartly Cloudy
11:00 PM77.0 °F69.8 °F78 %29.95 in6.2 miSSW (210°)3.5 mphMostly Cloudy
11:30 PM78.8 °F69.8 °F74 %29.92 in6.2 miSouth (170°)4.6 mphMostly Cloudy
Hourly data recorded from NTAA, located miles away from Papeete, French Polynesia







STORIES FROM OUR PARTNERS